Болугур

Россия / Республика Саха (Якутия)     60°36′16″N   131°28′22″E
темп.,
°C
ветер,
м/с
пор.,
м/с
влажн.,
%
обл.,
%
осадки,
мм/ч
давл.,
гПа
погр.,
м
9 марта, вт
вт900:00−12ссв1197100 0.4 100321
03:00−15ссз119899 0.4 100520
06:00−18сз119998 0.1 100720
09:00−16зсз139598 0.1 1009197
12:00−12зсз2593100 0.3 1011478
15:00−9сз3589100 0.4 1011731
18:00−13з119395 0.1 101321
21:00−16ююз129549 0.1 101420
10 марта, ср
ср1000:00−17ю239751 0.0 101327
03:00−17ююв369455 0.0 1010100
06:00−15ююв41190100 0.0 1008298
09:00−12ю51181100 0.0 1005605
12:00−10ююз4991100 0.2 1004644
15:00−7зсз71192100 0.9 1005978
18:00−11з51280100 0.3 1009823
21:00−16зюз239166 0.3 101372
11 марта, чт
чт1100:00−16зюз399390 0.0 1014242
03:00−17зюз389394 0.0 1015193
06:00−18зюз279398 0.0 1016161
09:00−15з498993 0.0 1016553
12:00−12зюз368691 0.1 10161013
15:00−11з478795 0.3 10151059
18:00−14зсз2487100 0.2 101783
21:00−20з129367 0.2 101820
12 марта, пт
пт1200:00−21юз129634 0.0 101920
03:00−21юз129966 0.0 101820
06:00−23ююз1210092 0.0 101720
09:00−17юв129392 0.0 1014118
12:00−12вюв359187 0.0 1011419
15:00−11вюв359199 0.1 1009506
18:00−11в2595100 0.3 1008252
21:00−14в269597 0.4 1009169
13 марта, сб
сб1300:00−16в129698 0.1 100941
03:00−19в229691 0.1 100924
06:00−19в129394 0.0 100851
09:00−16вюв138996 0.1 1008256
12:00−11юв3692100 0.3 1006430
15:00−8ююв3590100 0.3 1003507
18:00−10юв41092100 0.0 1000325
21:00−10юв41093100 0.1 996340